This is the latest recevied weather packets stored in our database for station/object IK2ILW-6. If no packets are shown the sender has not sent any weather packets the latest 10 day(s).
| Time | Temp. | Humidity | Pressure | Rain* | Wind** | Luminosity | Snow |
|---|---|---|---|---|---|---|---|
| 1778191288 | 3.33° C | 94% | 1016.4 hPa | 0 mm | - | 0 W/m² | - |
| 1778190993 | 3.33° C | 94% | 1016.5 hPa | 0 mm | - | 0 W/m² | - |
| 1778190698 | 3.33° C | 93% | 1016.5 hPa | 0 mm | - | 0 W/m² | - |
| 1778190402 | 3.33° C | 91% | 1016.4 hPa | 0 mm | - | 0 W/m² | - |
| 1778190087 | 3.33° C | 90% | 1016.3 hPa | 0 mm | - | 0 W/m² | - |
| 1778189795 | 3.33° C | 90% | 1016.3 hPa | 0 mm | - | 0 W/m² | - |
| 1778189499 | 3.33° C | 91% | 1016.3 hPa | 0 mm | - | 0 W/m² | - |
| 1778189184 | 3.33° C | 93% | 1016.1 hPa | 0 mm | - | 0 W/m² | - |
| 1778188888 | 3.33° C | 94% | 1016.2 hPa | 0 mm | - | 0 W/m² | - |
| 1778188594 | 3.33° C | 95% | 1016.3 hPa | 0 mm | - | 0 W/m² | - |
| 1778188297 | 3.33° C | 95% | 1016.4 hPa | 0 mm | - | 0 W/m² | - |
| 1778188001 | 3.33° C | 95% | 1016.5 hPa | 0 mm | - | 0 W/m² | - |
| 1778187686 | 3.33° C | 95% | 1016.5 hPa | 0 mm | - | 0 W/m² | - |
| 1778187390 | 3.33° C | 94% | 1016.4 hPa | 0 mm | - | 0 W/m² | - |
| 1778187094 | 3.33° C | 93% | 1016.5 hPa | 0 mm | - | 0 W/m² | - |
| 1778186798 | 3.33° C | 93% | 1016.3 hPa | 0 mm | - | 0 W/m² | - |
| 1778186486 | 3.33° C | 91% | 1016.3 hPa | 0 mm | - | 0 W/m² | - |
| 1778186191 | 3.89° C | 89% | 1016.3 hPa | 0 mm | - | 0 W/m² | - |
| 1778185894 | 3.89° C | 87% | 1016.2 hPa | 0 mm | - | 0 W/m² | - |
| 1778185598 | 3.89° C | 86% | 1016.1 hPa | 0 mm | - | 0 W/m² | - |
| 1778185283 | 3.89° C | 87% | 1016.1 hPa | 0 mm | - | 0 W/m² | - |
| 1778184987 | 3.33° C | 90% | 1016 hPa | 0 mm | - | 0 W/m² | - |
| 1778184691 | 3.33° C | 89% | 1016 hPa | 0 mm | - | 0 W/m² | - |
| 1778184393 | 3.33° C | 88% | 1016 hPa | 0 mm | - | 0 W/m² | - |
| 1778184096 | 3.89° C | 88% | 1015.9 hPa | 0 mm | - | 0 W/m² | - |
* Rain latest hour (hover to see other rain measurements)
** Current wind speed in m/s (hover to see current wind gust speed)